Regional Weather Roundup
Issued by NWS Wakefield, VA

Home | Current Version | Previous Version | Graphics & Text | Print | Product List | Glossary On
Versions: 1 2 3 4 5 6 7 8 9 10 11 12 13 14 15 16 17 18 19 20 21 22 23 24 25 26 27 28 29 30 31 32 33 34 35 36 37 38 39 40 41 42 43 44 45 46 47 48 49 50
000
ASUS41 KAKQ 012210
RWRAKQ

REGIONAL WEATHER ROUNDUP
NATIONAL WEATHER SERVICE WAKEFIELD VA
600 PM EDT MON SEP 01 2014

Note: "fair" indicates few or no clouds below 12,000 feet with no
significant weather and/or obstructions to visibility. * = Denotes
station may not report precipitation (e.g., rain,snow,etc.),
thunder or fog.

VAZ042-051-052>054-056-012300-
NORTHERN VIRGINIA

CITY           SKY/WX    TMP DP  RH WIND       PRES   REMARKS
WASH NATIONAL  PTSUNNY   87  71  58 CALM      29.95F
DULLES         MOSUNNY   85  72  65 S5        29.95F
FORT BELVOIR   MOSUNNY   87  73  62 S3        29.95S
QUANTICO       MOSUNNY   84  73  69 S3        29.95F
FREDERICKSBRG* SUNNY     89  75  64 SE3       29.94S HX  98
STAFFORD*      SUNNY     86  75  70 CALM      29.99S HX  95
WARRENTON      NOT AVBL
CULPEPER*      MOSUNNY  N/A N/A N/A CALM      29.95S
MANASSAS*      SUNNY     88  73  62 SE6       29.95  HX  96
LEESBURG*      SUNNY     86  75  70 SW3       29.95F HX  95
WINCHESTER     MOSUNNY   88  64  45 NW3       29.96S
$$

VAZ048-049-060>072-079>083-012300-
CENTRAL AND SOUTH CENTRAL VIRGINIA...AND NORTH CENTRAL NORTH CAROLINA

CITY           SKY/WX    TMP DP  RH WIND       PRES   REMARKS
RICHMOND       PTSUNNY   94  66  39 W13       29.96S HX  97
CHESTERFIELD*  MOCLDY    90  66  45 SW8       29.99S
PETERSBURG*    MOSUNNY   89  68  50 SW9       29.98S
HANOVER        SUNNY     91  70  49 W8        29.98S HX  96
TAPPAHANNOCK*  MOSUNNY   92  64  39 SW3       29.97R
CHARLOTTSVILLE SUNNY     89  69  51 S8        29.97S
ORANGE*        SUNNY     90  68  48 S5        29.97S
LOUISA*        MOSUNNY   88  73  62 S3        29.96S HX  96
FARMVILLE*     SUNNY     91  68  46 SW7       29.97S HX  95
SOUTH HILL*    PTSUNNY   90  73  58 SW5       30.06F HX  98
ROANOKE RAPIDS MOCLDY    86  68  54 W5        30.01S
RALEIGH        PTSUNNY   87  71  58 CALM      30.03F
$$

VAZ088>098-012300-
SOUTHEAST VIRGINIA

CITY           SKY/WX    TMP DP  RH WIND       PRES   REMARKS
NORFOLK        PTSUNNY   92  68  45 SW17      29.99R HX  96
VIRGINIA BEACH PTSUNNY   90  72  55 SW12      29.99R HX  97
NORFOLK NAVAL  PTSUNNY   92  71  50 SW7G16    30.00R HX  98
WEST POINT*    PTSUNNY   92  68  44 SW9       29.98R HX  96
NEWPORT NEWS   PTSUNNY   94  72  48 SW14      29.98R HX 102
LANGLEY AFB    PTSUNNY   90  74  58 SW9       29.98R HX  99
FORT EUSTIS    PTSUNNY   89  69  50 SW6       29.97R
WILLIAMSBURG*  MOSUNNY   93  72  49 W8        29.99R HX 100
FRANKLIN*      PTSUNNY   88  68  51 SW5       29.99S
WAKEFIELD      PTSUNNY   90  71  53 SW6       29.98S HX  96
$$

VAZ020-022-025-037-045-012300-
WESTERN AND SOUTHWEST VIRGINIA

CITY           SKY/WX    TMP DP  RH WIND       PRES   REMARKS
STAUNTON*      MOSUNNY   89  63  42 SW10G17   30.02R
HOT SPRINGS VA MOSUNNY   73  59  60 W13G20    30.20F
LYNCHBURG      SUNNY     86  69  56 SW6       30.03F
DANVILLE       SUNNY     91  67  44 SW8       30.02F
MARTINSVILLE   MOSUNNY   88  67  50 W5        30.08R
ROANOKE        MOSUNNY   88  62  41 W10       30.06S
BLACKSBURG     SUNNY     84  66  54 SW3       30.14R
DUBLIN*        SUNNY     83  67  57 SW9       30.13S
MARION*        SUNNY    N/A N/A N/A W13G18    30.17S
HILLSVILLE*    PTSUNNY   79  64  58 SW5       30.17R
RICHLANDS*     PTCLDY    83  67  57 SW5       30.15F
WISE*          MOSUNNY   81  64  57 SW6       30.16S
ABINGDON*      SUNNY     85  65  51 NW6       30.12S
$$

MDZ021>025-VAZ099-100-012300-
SOUTHERN MARYLAND AND THE DELMARVA PENINSULA

CITY           SKY/WX    TMP DP  RH WIND       PRES   REMARKS
PATUXENT RIVER PTSUNNY   86  75  69 E5        29.95S HX  95
BAY BRIDGE APT RAIN      84  73  70 S6        29.94S
LEONARDTOWN    PTSUNNY   90  68  48 NW3       29.97S
DOVER          MOSUNNY   83  76  79 SE5       29.93F
GEORGETOWN     MOSUNNY   89  72  56 S12       29.96S HX  96
EASTON         PTSUNNY   90  73  58 SW6       29.98F HX  98
CAMBRIDGE      NOT AVBL
SALISBURY      MOSUNNY   91  74  57 SW10      29.96S HX 100
OCEAN CITY     MOSUNNY   83  77  82 VRB7      29.96F
WALLOPS ISLAND PTSUNNY   82  77  84 SW12      29.99R
ACCOMACK*      NOT AVBL
$$

NCZ012>017-030>032-012300-
EASTERN NORTH CAROLINA

CITY           SKY/WX    TMP DP  RH WIND       PRES   REMARKS
ELIZABETH CITY MOSUNNY   88  73  61 SW7       30.01R HX  95
AHOSKIE*       PTSUNNY   87  72  61 CALM      30.01S
EDENTON*       MOSUNNY   90  73  58 SW6       30.01S HX  98
CURRITUCK*     MOSUNNY   90  71  53 SW5       30.01R HX  97
KILL DEVIL HLS MOSUNNY   86  76  70 S8        30.01S HX  96
MANTEO         MOSUNNY   85  76  73 S15       30.03S
CAPE HATTERAS  SUNNY     82  77  84 SW13G22   30.05F
GOLDSBORO      PTSUNNY   92  74  54 SW2       30.00S HX 101
WASHINGTON     MOSUNNY   91  71  51 SW8       30.02S HX  96
GREENVILLE     PTSUNNY   90  73  58 W3        30.04R HX  98
NEW BERN       MOSUNNY   88  75  65 SW10      30.05R HX  97
WILMINGTON     PTSUNNY   87  75  67 S12       30.04F HX  96
$$

VAZ048-012300-
ELSEWHERE

CITY           SKY/WX    TMP DP  RH WIND       PRES   REMARKS
HARRISBURG PA  PTSUNNY   82  76  81 CALM      29.92F
BALTIMORE      MOSUNNY   88  72  58 W5        29.93F
ANNAPOLIS      LGT RAIN  83  74  74 CALM      29.94S
ANDREWS AFB    MOSUNNY   84  74  72 VRB3      29.96R
WILMINGTON DE  PTSUNNY   84  75  74 S12       29.94F
PHILADELPHIA   PTSUNNY   88  71  57 SW9       29.93F
WILDWOOD NJ*   MOSUNNY   81  73  78 SE9       29.97F
ATLANTIC CITY  MOSUNNY   82  71  69 S12       29.96R
HENDERSON NC   PTSUNNY   87  65  48 SW5       30.03F
GREENSBORO     MOSUNNY   91  61  36 W9        30.05S
ROCKY MOUNT    PTSUNNY   90  74  59 S6        30.02S HX  99
FAYETTEVILLE   PTSUNNY   92  71  50 SE6       30.01S HX  98
CHARLOTTE      PTSUNNY   90  64  42 SW6       30.05F
$$

VAZ100-012300-
MARINE

STATION/POSITION TIME  TEMP    WIND        PRES    WAVE   SWELL
                       AIR SEA DIR/SP/G            HT/PER HT/PER
                 (UTC) (F)     (DEG/KT/KT) (MB)    (FT/S) (FT/S)
44066 TX TWR #4  2200   75 75  220/ 10/ 12 1015.0R   3/ 5   3/ 5
CAPE MAY NJ      2200   78 80  110/  7/  9 1013.9F
LEWES DE         2200   89 78  240/  7/  9 1013.9R
15NM E FENWICK I 2200   78 76              1014.3F   3/10
OCEAN-CITY-INLET 2200   79 77  210/ 13/ 16 1014.4S
WACHAPREAGUE VA  2200   80 84  250/  5/ 12 1016.2S
THOMAS POINT MD  2200   81 79  180/ 11/ 13 1014.8S
GOOSES REEF MD   2200   82     200/ 10/ 12 1014.7F
COVE POINT MD    2200   81     160/ 10/ 11 1014.1F
SOLOMONS ISLAND  2200      81                N/A
BISHOPS HEAD MD  2200   84 85  200/ 15/ 16 1014.0S
PINEY POINT MD   2200          160/  6/  7   N/A
POTOMAC MD       2200   83     190/ 14/ 16 1013.7S
CAMBRIDGE MD     2200   88 79  170/  6/  9 1014.0S
LEWISETTA VA     2200   85 80  180/  8/  9 1013.8F
RAPPAHANNOCK LGT 2200           90/ 17/ 19 1016.4F
STINGRAY PT      2200   83     150/ 16/ 21   N/A
YORK RVR RNG VA  2200   88     240/  9/ 11 1014.9S
YORKTOWN VA      2200   89 81  240/  4/  6 1014.9S
JAMESTOWN VA     2200   88     260/ 10/ 14   N/A
DOMINION TERM VA 2200   87     230/ 10/ 12 1015.4R
KIPTOPEKE VA     2200      83   40/  5/  9   N/A
CHES BAY BRIDGE  2200   88 79  210/ 10/ 14 1015.0R
CAPE HENRY VA    2200   90     230/  6/ 12 1014.3R
CHESAPEAKE LGHT  2100   81     170/ 21/ 23 1015.5F
WILLOUBY STN VA  2200   87     290/  8/ 11 1014.2R
S CRANEY ISL VA  2200          230/  8/ 13 1015.2R
CAPE HENRY BUOY  2200      80                N/A     3/ 4   2/11
1ST LANDING BUOY 2200   87     230/ 10/ 12 1015.1R
CAPE CHARLES BUO 2200      80                N/A     3/ 9   2/ 9
OFFSHORE WE BUOY 2200      79                N/A     3/ 9   2/ 9
64NM E OF VA BCH 2200   79 78  190/ 14/ 16 1016.3S   3/ 8   2/ 8
DUCK PIER NC     2200   87 76  180/ 15/ 18 1015.3R
44056 DUCK FRF   2200                        N/A     2/ 9   2/13
OREGON INLET NC  2200   83 84  190/ 18/ 20 1017.0S
HATTERAS NC      2200   83 84  200/  9/ 14 1018.1F
DIAMOND SHLS NC  2200   82     200/ 16/ 17 1017.8S   3/ 8   2/ 8
CAPE LOOKOUT NC  2100   84     200/ 11/ 13 1018.0F
$$


USA.gov is the U.S. government's official web portal to all federal, state and local government web resources and services.